| time (UTC) | temp F | wind direction | speed MPH | gust MPH | rain 1hr in | rain 24hr in | rain mn in | humidity % | barometer mb |
| 20260506234702 | 55 | 255 | 4.0 | 9.0 | 0.00 | 0.64 | 0.36 | 61 | 1013.1 |
| 20260506233703 | 55 | 3 | 1.0 | 6.0 | 0.00 | 0.64 | 0.36 | 60 | 1013.0 |
| 20260506232702 | 56 | 305 | 1.0 | 9.0 | 0.00 | 0.64 | 0.36 | 60 | 1012.9 |
| 20260506231703 | 56 | 231 | 3.0 | 13.0 | 0.00 | 0.64 | 0.36 | 59 | 1013.2 |
| 20260506230702 | 56 | 313 | 2.0 | 11.0 | 0.00 | 0.64 | 0.36 | 60 | 1013.2 |
| 20260506225703 | 56 | 261 | 2.0 | 6.0 | 0.00 | 0.64 | 0.36 | 60 | 1013.5 |
| 20260506224702 | 56 | 336 | 3.0 | 9.0 | 0.00 | 0.64 | 0.36 | 60 | 1013.5 |
| 20260506223702 | 56 | 262 | 2.0 | 11.0 | 0.00 | 0.64 | 0.36 | 61 | 1013.6 |
| 20260506222702 | 56 | 292 | 4.0 | 11.0 | 0.00 | 0.65 | 0.36 | 60 | 1013.7 |
| 20260506221704 | 57 | 326 | 3.0 | 11.0 | 0.00 | 0.66 | 0.36 | 61 | 1013.8 |
| 20260506220702 | 58 | 274 | 4.0 | 13.0 | 0.00 | 0.68 | 0.36 | 59 | 1013.5 |
| 20260506215702 | 58 | 66 | 5.0 | 11.0 | 0.00 | 0.72 | 0.36 | 61 | 1013.0 |
| 20260506213702 | 57 | 320 | 5.0 | 15.0 | 0.00 | 0.74 | 0.36 | 59 | 1012.9 |
| 20260506212702 | 57 | 333 | 3.0 | 11.0 | 0.00 | 0.74 | 0.36 | 62 | 1012.7 |
| 20260506211701 | 58 | 303 | 2.0 | 13.0 | 0.00 | 0.74 | 0.36 | 61 | 1012.7 |
| 20260506210702 | 58 | 295 | 3.0 | 15.0 | 0.00 | 0.74 | 0.36 | 61 | 1012.6 |
| 20260506205702 | 58 | 285 | 3.0 | 13.0 | 0.00 | 0.74 | 0.36 | 60 | 1012.4 |
| 20260506204703 | 59 | 320 | 4.0 | 11.0 | 0.00 | 0.74 | 0.36 | 58 | 1012.4 |
| 20260506203703 | 59 | 32 | 6.0 | 15.0 | 0.00 | 0.74 | 0.36 | 57 | 1012.4 |
| 20260506202703 | 60 | 282 | 6.0 | 13.0 | 0.00 | 0.74 | 0.36 | 55 | 1012.4 |
| 20260506200702 | 61 | 331 | 6.0 | 17.0 | 0.00 | 0.74 | 0.36 | 59 | 1012.2 |
| 20260506195703 | 61 | 274 | 8.0 | 15.0 | 0.00 | 0.74 | 0.36 | 58 | 1012.2 |
| 20260506194703 | 62 | 257 | 4.0 | 11.0 | 0.00 | 0.74 | 0.36 | 57 | 1012.3 |
| 20260506193703 | 61 | 62 | 4.0 | 17.0 | 0.00 | 0.74 | 0.36 | 56 | 1012.2 |
| 20260506192704 | 62 | 276 | 6.0 | 17.0 | 0.00 | 0.74 | 0.36 | 56 | 1012.2 |
| 20260506191704 | 61 | 248 | 9.0 | 13.0 | 0.00 | 0.74 | 0.36 | 60 | 1011.9 |
| 20260506190703 | 61 | 316 | 8.0 | 15.0 | 0.00 | 0.74 | 0.36 | 55 | 1011.9 |
| 20260506185702 | 61 | 258 | 5.0 | 17.0 | 0.00 | 0.74 | 0.36 | 57 | 1012.3 |
| 20260506184701 | 61 | 354 | 8.0 | 15.0 | 0.00 | 0.74 | 0.36 | 57 | 1012.2 |
| 20260506181702 | 61 | 169 | 3.0 | 11.0 | 0.00 | 0.74 | 0.36 | 57 | 1012.4 |
| 20260506180702 | 60 | 300 | 4.0 | 15.0 | 0.00 | 0.74 | 0.36 | 55 | 1012.3 |
| 20260506175702 | 60 | 121 | 4.0 | 13.0 | 0.00 | 0.74 | 0.36 | 55 | 1012.3 |
| 20260506174703 | 60 | 321 | 4.0 | 15.0 | 0.00 | 0.74 | 0.36 | 54 | 1012.3 |
| 20260506173703 | 59 | 13 | 6.0 | 23.0 | 0.00 | 0.74 | 0.36 | 55 | 1012.4 |
| 20260506172704 | 59 | 274 | 8.0 | 15.0 | 0.00 | 0.74 | 0.36 | 58 | 1012.5 |
| 20260506171703 | 59 | 8 | 5.0 | 15.0 | 0.00 | 0.74 | 0.36 | 60 | 1012.6 |
| 20260506170703 | 60 | 357 | 7.0 | 15.0 | 0.00 | 0.74 | 0.36 | 59 | 1012.7 |
| 20260506164701 | 59 | 265 | 4.0 | 15.0 | 0.00 | 0.74 | 0.36 | 61 | 1012.2 |
| 20260506162703 | 58 | 262 | 4.0 | 23.0 | 0.00 | 0.74 | 0.36 | 63 | 1012.6 |
| 20260506161703 | 58 | 23 | 4.0 | 11.0 | 0.00 | 0.74 | 0.36 | 64 | 1012.6 |
| 20260506160703 | 57 | 323 | 5.0 | 15.0 | 0.00 | 0.74 | 0.36 | 64 | 1012.4 |
| 20260506154703 | 56 | 1 | 2.0 | 15.0 | 0.00 | 0.74 | 0.36 | 65 | 1012.3 |
| 20260506153714 | 56 | 345 | 4.0 | 11.0 | 0.00 | 0.74 | 0.36 | 66 | 1012.1 |
| 20260506150702 | 54 | 42 | 3.0 | 11.0 | 0.00 | 0.74 | 0.36 | 70 | 1011.8 |
| 20260506145702 | 53 | 265 | 4.0 | 11.0 | 0.00 | 0.74 | 0.36 | 72 | 1011.9 |
| 20260506144702 | 52 | 18 | 6.0 | 13.0 | 0.00 | 0.74 | 0.36 | 73 | 1011.9 |
| 20260506143702 | 52 | 309 | 6.0 | 13.0 | 0.00 | 0.74 | 0.36 | 75 | 1011.8 |
| 20260506142703 | 51 | 312 | 6.0 | 11.0 | 0.00 | 0.74 | 0.36 | 77 | 1011.6 |
| 20260506141702 | 51 | 269 | 3.0 | 11.0 | 0.00 | 0.74 | 0.36 | 78 | 1011.7 |
| 20260506140702 | 51 | 30 | 0.0 | 13.0 | 0.00 | 0.74 | 0.36 | 80 | 1011.3 |
| 20260506133702 | 49 | 255 | 4.0 | 13.0 | 0.00 | 0.74 | 0.36 | 84 | 1010.8 |
| 20260506132702 | 49 | 338 | 3.0 | 13.0 | 0.00 | 0.74 | 0.36 | 87 | 1010.9 |
| 20260506131702 | 49 | 310 | 5.0 | 13.0 | 0.00 | 0.74 | 0.36 | 88 | 1010.8 |
| 20260506130702 | 49 | 358 | 4.0 | 11.0 | 0.00 | 0.74 | 0.36 | 90 | 1010.7 |
| 20260506125702 | 48 | 31 | 8.0 | 19.0 | 0.00 | 0.74 | 0.36 | 90 | 1010.7 |
| 20260506124701 | 48 | 338 | 0.0 | 9.0 | 0.00 | 0.74 | 0.36 | 92 | 1010.6 |
| 20260506122703 | 48 | 0 | 1.0 | 6.0 | 0.00 | 0.74 | 0.36 | 93 | 1010.0 |
| 20260506121703 | 47 | 37 | 4.0 | 11.0 | 0.00 | 0.74 | 0.36 | 93 | 1009.8 |
| 20260506120703 | 47 | 18 | 3.0 | 11.0 | 0.00 | 0.74 | 0.36 | 94 | 1009.6 |
| 20260506115703 | 47 | 49 | 3.0 | 9.0 | 0.00 | 0.74 | 0.36 | 94 | 1010.0 |
| 20260506114702 | 47 | 303 | 3.0 | 13.0 | 0.01 | 0.74 | 0.36 | 94 | 1009.6 |
| 20260506113703 | 47 | 0 | 5.0 | 15.0 | 0.01 | 0.74 | 0.36 | 94 | 1009.6 |
| 20260506112702 | 47 | 343 | 3.0 | 11.0 | 0.01 | 0.74 | 0.36 | 94 | 1009.6 |
| 20260506105702 | 47 | 37 | 3.0 | 13.0 | 0.01 | 0.73 | 0.36 | 93 | 1008.2 |
| 20260506104702 | 47 | 295 | 5.0 | 19.0 | 0.00 | 0.73 | 0.35 | 93 | 1008.3 |
| 20260506103702 | 47 | 348 | 2.0 | 9.0 | 0.00 | 0.73 | 0.35 | 93 | 1008.6 |
| 20260506102702 | 47 | 288 | 2.0 | 6.0 | 0.00 | 0.73 | 0.35 | 94 | 1008.5 |
| 20260506101702 | 47 | 320 | 2.0 | 6.0 | 0.00 | 0.73 | 0.35 | 93 | 1008.0 |
| 20260506100703 | 47 | 329 | 1.0 | 11.0 | 0.00 | 0.73 | 0.35 | 93 | 1007.9 |
| 20260506094702 | 47 | 45 | 0.0 | 9.0 | 0.01 | 0.73 | 0.35 | 93 | 1007.2 |
| 20260506092702 | 47 | 343 | 5.0 | 17.0 | 0.04 | 0.73 | 0.35 | 93 | 1007.7 |
| 20260506091701 | 47 | 6 | 6.0 | 17.0 | 0.05 | 0.73 | 0.35 | 93 | 1007.4 |
| 20260506085703 | 47 | 338 | 4.0 | 19.0 | 0.08 | 0.65 | 0.35 | 93 | 1007.2 |
| 20260506084703 | 47 | 336 | 7.0 | 19.0 | 0.09 | 0.65 | 0.34 | 93 | 1007.1 |
| 20260506083704 | 47 | 86 | 5.0 | 17.0 | 0.07 | 0.65 | 0.32 | 93 | 1007.5 |
| 20260506082702 | 47 | 11 | 4.0 | 19.0 | 0.06 | 0.65 | 0.31 | 93 | 1007.5 |
| 20260506081702 | 47 | 10 | 4.0 | 19.0 | 0.06 | 0.65 | 0.30 | 93 | 1007.2 |
| 20260506080704 | 48 | 0 | 3.0 | 17.0 | 0.05 | 0.65 | 0.28 | 94 | 1007.2 |
| 20260506072703 | 48 | 350 | 4.0 | 13.0 | 0.09 | 0.60 | 0.25 | 93 | 1006.7 |
| 20260506070702 | 49 | 3 | 3.0 | 13.0 | 0.12 | 0.60 | 0.23 | 93 | 1006.6 |
| 20260506061704 | 50 | 14 | 4.0 | 11.0 | 0.12 | 0.47 | 0.13 | 93 | 1006.8 |
| 20260506060702 | 50 | 354 | 2.0 | 15.0 | 0.11 | 0.47 | 0.11 | 93 | 1006.6 |
| 20260506050703 | 53 | 327 | 2.0 | 11.0 | 0.00 | 0.38 | 0.00 | 93 | 1007.0 |
| 20260506044702 | 55 | 24 | 2.0 | 6.0 | 0.00 | 0.38 | 0.00 | 92 | 1007.0 |
| 20260506043702 | 56 | 237 | 2.0 | 9.0 | 0.01 | 0.38 | 0.00 | 92 | 1007.0 |
| 20260506041702 | 58 | 172 | 0.0 | 0.0 | 0.05 | 0.38 | 0.00 | 94 | 1007.1 |
| 20260506040701 | 58 | 172 | 0.0 | 0.0 | 0.06 | 0.38 | 0.00 | 94 | 1007.0 |
| 20260506035702 | 58 | 172 | 0.0 | 0.0 | 0.09 | 0.30 | 0.38 | 94 | 1007.0 |
| 20260506034702 | 58 | 172 | 0.0 | 2.0 | 0.10 | 0.30 | 0.38 | 94 | 1007.2 |
| 20260506032704 | 58 | 171 | 0.0 | 0.0 | 0.10 | 0.30 | 0.36 | 94 | 1007.6 |
| 20260506031703 | 58 | 220 | 0.0 | 0.0 | 0.09 | 0.30 | 0.33 | 94 | 1007.8 |
| 20260506025703 | 59 | 193 | 0.0 | 0.0 | 0.10 | 0.19 | 0.28 | 94 | 1008.1 |
| 20260506024703 | 59 | 193 | 0.0 | 0.0 | 0.11 | 0.19 | 0.27 | 94 | 1007.9 |
| 20260506023702 | 59 | 193 | 0.0 | 0.0 | 0.12 | 0.19 | 0.27 | 94 | 1008.0 |
| 20260506022702 | 59 | 193 | 0.0 | 0.0 | 0.12 | 0.19 | 0.26 | 93 | 1008.0 |
| 20260506021704 | 59 | 193 | 0.0 | 2.0 | 0.12 | 0.19 | 0.24 | 93 | 1008.0 |
| 20260506020703 | 59 | 172 | 0.0 | 0.0 | 0.11 | 0.19 | 0.21 | 93 | 1008.1 |
| 20260506014702 | 60 | 171 | 0.0 | 0.0 | 0.07 | 0.11 | 0.16 | 93 | 1008.0 |
| 20260506013703 | 60 | 171 | 0.0 | 0.0 | 0.05 | 0.11 | 0.15 | 93 | 1007.7 |
| 20260506012702 | 60 | 172 | 0.0 | 2.0 | 0.04 | 0.11 | 0.14 | 93 | 1007.7 |
| 20260506011702 | 60 | 172 | 0.0 | 2.0 | 0.02 | 0.11 | 0.12 | 93 | 1007.5 |
| 20260506010702 | 60 | 157 | 0.0 | 0.0 | 0.01 | 0.11 | 0.11 | 93 | 1007.5 |
| 20260506003655 | 60 | 157 | 0.0 | 0.0 | 0.00 | 0.10 | 0.10 | 93 | 1007.5 |
| 20260506002648 | 60 | 157 | 0.0 | 2.0 | 0.00 | 0.10 | 0.10 | 93 | 1007.5 |
| 20260506001643 | 60 | 148 | 0.0 | 2.0 | 0.00 | 0.10 | 0.10 | 93 | 1007.5 |
| 20260506000640 | 60 | 178 | 2.0 | 4.0 | 0.00 | 0.10 | 0.10 | 92 | 1007.6 |
| 20260505235630 | 60 | 166 | 0.0 | 2.0 | 0.00 | 0.10 | 0.10 | 92 | 1007.8 |